Retour au catalogue

STARLINK-5279

ActifCommunicationsVLEO
NORAD 54165·PAYLOAD·🇺🇸 United States

Lancé Oct 28, 2022 depuis Vandenberg Space Force Base

Loading…

Prochains Passages (prochaines 24 heures)

TLE

FraisSource: CelesTrak SupGP

Époque: Sep 15, 2026, 01:27 UTC

1 54165C 22141J   26258.06090278  .00690200  00000+0  26807-1 0  2584
2 54165  53.1610 242.6839 0001503  94.3675 340.8205 15.25197556    15

Suivez STARLINK-5279 en temps réel avec AllMySat

Download on the App Store